Terminal Aerodrome Forecast
Issued by NWS Binghamton, NY

Home | Current Version | Previous Version | Text Only | Print | Product List | Glossary On
Versions: 1 2 3 4 5 6 7 8 9 10 11 12 13 14 15 16 17 18 19 20 21
000
FTUS41 KBGM 271733
TAFBGM
TAF
KBGM 271733Z 2718/2818 27010KT P6SM BKN060
      TEMPO 2718/2721 TSRA OVC035CB
     FM280300 25005KT P6SM FEW070
     FM281600 29008KT P6SM SCT130=

USA.gov is the U.S. government's official web portal to all federal, state and local government web resources and services.